Time,TemperatureF,DewpointF,PressureIn,WindDirection,WindDirectionDegrees,WindSpeedMPH,WindSpeedGustMPH,Humidity,HourlyPrecipIn,Conditions,Clouds,dailyrainin,SoftwareType,DateUTC
2013-04-23 00:02:00,69.3,66.9,29.99,North,351,0.0,0.0,92,0.00,,,0.00,Wunderground v.1.15,2013-04-23 04:02:00,
2013-04-23 00:03:00,69.3,66.9,29.99,North,351,0.0,0.0,92,0.00,,,0.00,Wunderground v.1.15,2013-04-23 04:03:00,
2013-04-23 00:04:00,69.1,66.7,29.99,North,351,0.0,0.0,92,0.00,,,0.00,Wunderground v.1.15,2013-04-23 04:04:00,
2013-04-23 00:05:00,69.1,66.7,29.99,North,351,0.0,0.0,92,0.00,,,0.00,Wunderground v.1.15,2013-04-23 04:05:00,
2013-04-23 00:11:00,68.9,66.5,29.99,North,351,0.0,0.0,92,0.00,,,0.00,Wunderground v.1.15,2013-04-23 04:11:00,
2013-04-23 00:17:00,68.9,66.5,30.00,North,351,0.0,0.0,92,0.00,,,0.00,Wunderground v.1.15,2013-04-23 04:17:00,
2013-04-23 00:23:00,68.9,66.8,30.00,North,354,0.0,0.0,93,0.00,,,0.00,Wunderground v.1.15,2013-04-23 04:23:00,
2013-04-23 00:24:00,68.9,66.8,30.00,North,357,0.0,0.0,93,0.00,,,0.00,Wunderground v.1.15,2013-04-23 04:24:00,
2013-04-23 00:30:00,69.1,67.0,29.99,NNW,348,0.0,0.0,93,0.00,,,0.00,Wunderground v.1.15,2013-04-23 04:30:00,
2013-04-23 00:36:00,69.4,67.6,29.99,North,359,0.0,0.0,94,0.00,,,0.00,Wunderground v.1.15,2013-04-23 04:36:00,
2013-04-23 00:42:00,69.6,67.5,29.99,North,359,0.0,0.0,93,0.00,,,0.00,Wunderground v.1.15,2013-04-23 04:42:00,
2013-04-23 00:48:00,69.8,67.7,29.99,North,358,0.0,0.0,93,0.00,,,0.00,Wunderground v.1.15,2013-04-23 04:48:00,
2013-04-23 00:54:00,70.1,67.7,29.99,North,7,0.0,0.0,92,0.00,,,0.00,Wunderground v.1.15,2013-04-23 04:54:00,
2013-04-23 01:01:00,69.9,67.2,29.99,North,359,0.0,0.0,91,0.00,,,0.00,Wunderground v.1.15,2013-04-23 05:01:00,
2013-04-23 01:06:00,70.1,66.7,29.99,North,358,0.0,0.0,89,0.00,,,0.00,Wunderground v.1.15,2013-04-23 05:06:00,
2013-04-23 01:12:00,70.4,66.3,29.99,North,1,0.0,0.0,87,0.00,,,0.00,Wunderground v.1.15,2013-04-23 05:12:00,
2013-04-23 01:18:00,70.8,66.4,29.98,North,1,0.0,1.0,86,0.00,,,0.00,Wunderground v.1.15,2013-04-23 05:18:00,
2013-04-23 01:24:00,70.9,66.2,29.98,NE,40,0.0,0.0,85,0.00,,,0.00,Wunderground v.1.15,2013-04-23 05:24:00,
2013-04-23 01:30:00,71.1,66.0,29.98,North,4,0.0,1.0,84,0.00,,,0.00,Wunderground v.1.15,2013-04-23 05:30:00,
2013-04-23 01:36:00,71.3,66.2,29.98,North,359,0.0,0.0,84,0.00,,,0.00,Wunderground v.1.15,2013-04-23 05:36:00,
2013-04-23 01:42:00,71.3,66.2,29.98,NE,53,1.0,1.0,84,0.00,,,0.00,Wunderground v.1.15,2013-04-23 05:42:00,
2013-04-23 01:48:00,71.3,65.9,29.97,North,359,0.0,1.0,83,0.00,,,0.00,Wunderground v.1.15,2013-04-23 05:48:00,
2013-04-23 01:54:00,71.5,66.4,29.97,North,5,0.0,1.0,84,0.00,,,0.00,Wunderground v.1.15,2013-04-23 05:54:00,
2013-04-23 02:00:00,71.5,66.8,29.97,North,0,0.0,0.0,85,0.00,,,0.00,Wunderground v.1.15,2013-04-23 06:00:00,
2013-04-23 02:05:00,71.5,67.1,29.97,North,359,0.0,1.0,86,0.00,,,0.00,Wunderground v.1.15,2013-04-23 06:05:00,
2013-04-23 02:10:00,71.5,67.1,29.97,NNE,15,0.0,0.0,86,0.00,,,0.00,Wunderground v.1.15,2013-04-23 06:10:00,
2013-04-23 02:16:00,71.5,67.1,29.96,North,1,0.0,1.0,86,0.00,,,0.00,Wunderground v.1.15,2013-04-23 06:16:00,
2013-04-23 02:21:00,71.5,67.4,29.96,North,1,1.0,1.0,87,0.00,,,0.00,Wunderground v.1.15,2013-04-23 06:21:00,
2013-04-23 02:26:00,71.1,67.4,29.96,North,356,0.0,1.0,88,0.00,,,0.00,Wunderground v.1.15,2013-04-23 06:26:00,
2013-04-23 02:31:00,71.1,67.4,29.95,NNW,335,0.0,0.0,88,0.00,,,0.00,Wunderground v.1.15,2013-04-23 06:31:00,
2013-04-23 02:36:00,70.9,67.5,29.95,North,349,0.0,0.0,89,0.00,,,0.00,Wunderground v.1.15,2013-04-23 06:36:00,
2013-04-23 02:42:00,70.4,66.3,29.95,NNW,346,0.0,0.0,87,0.00,,,0.00,Wunderground v.1.15,2013-04-23 06:42:00,
2013-04-23 02:47:00,69.8,65.8,29.95,NNW,346,0.0,0.0,87,0.00,,,0.00,Wunderground v.1.15,2013-04-23 06:47:00,
2013-04-23 02:52:00,69.1,65.1,29.95,NNW,346,0.0,0.0,87,0.00,,,0.00,Wunderground v.1.15,2013-04-23 06:52:00,
2013-04-23 02:57:00,68.6,64.9,29.95,NNW,346,0.0,0.0,88,0.00,,,0.00,Wunderground v.1.15,2013-04-23 06:57:00,
2013-04-23 03:02:00,68.3,64.9,29.95,NNW,346,0.0,0.0,89,0.00,,,0.00,Wunderground v.1.15,2013-04-23 07:02:00,
2013-04-23 03:07:00,67.9,64.5,29.95,NNW,346,0.0,0.0,89,0.00,,,0.00,Wunderground v.1.15,2013-04-23 07:07:00,
2013-04-23 03:12:00,67.6,64.6,29.95,NNW,346,0.0,0.0,90,0.00,,,0.00,Wunderground v.1.15,2013-04-23 07:12:00,
2013-04-23 03:17:00,67.3,64.6,29.95,NNW,346,0.0,0.0,91,0.00,,,0.00,Wunderground v.1.15,2013-04-23 07:17:00,
2013-04-23 03:22:00,67.1,64.7,29.95,NNW,346,0.0,0.0,92,0.00,,,0.00,Wunderground v.1.15,2013-04-23 07:22:00,
2013-04-23 03:27:00,66.8,64.4,29.95,NNW,346,0.0,0.0,92,0.00,,,0.00,Wunderground v.1.15,2013-04-23 07:27:00,
2013-04-23 03:32:00,66.6,64.5,29.95,NNW,346,0.0,0.0,93,0.00,,,0.00,Wunderground v.1.15,2013-04-23 07:32:00,
2013-04-23 03:37:00,66.4,64.3,29.95,NNW,346,0.0,0.0,93,0.00,,,0.00,Wunderground v.1.15,2013-04-23 07:37:00,
2013-04-23 03:43:00,66.3,64.5,29.95,North,0,0.0,0.0,94,0.00,,,0.00,Wunderground v.1.15,2013-04-23 07:43:00,
2013-04-23 03:48:00,66.6,64.8,29.95,North,0,0.0,0.0,94,0.00,,,0.00,Wunderground v.1.15,2013-04-23 07:48:00,
2013-04-23 03:53:00,66.8,65.3,29.95,North,359,0.0,0.0,95,0.00,,,0.00,Wunderground v.1.15,2013-04-23 07:53:00,
2013-04-23 03:59:00,67.1,65.6,29.94,NNE,25,0.0,0.0,95,0.00,,,0.00,Wunderground v.1.15,2013-04-23 07:59:00,
2013-04-23 04:04:00,67.4,65.9,29.94,North,353,0.0,0.0,95,0.00,,,0.00,Wunderground v.1.15,2013-04-23 08:04:00,
2013-04-23 04:09:00,68.3,66.8,29.94,North,8,0.0,0.0,95,0.00,,,0.00,Wunderground v.1.15,2013-04-23 08:09:00,
2013-04-23 04:14:00,68.8,67.0,29.94,North,6,0.0,0.0,94,0.00,,,0.00,Wunderground v.1.15,2013-04-23 08:14:00,
2013-04-23 04:19:00,68.9,66.8,29.94,North,6,0.0,0.0,93,0.00,,,0.00,Wunderground v.1.15,2013-04-23 08:19:00,
2013-04-23 04:24:00,68.6,65.9,29.94,North,0,0.0,0.0,91,0.00,,,0.00,Wunderground v.1.15,2013-04-23 08:24:00,
2013-04-23 04:29:00,68.1,65.4,29.94,North,0,0.0,0.0,91,0.00,,,0.00,Wunderground v.1.15,2013-04-23 08:29:00,
2013-04-23 04:34:00,67.6,64.9,29.94,North,0,0.0,0.0,91,0.00,,,0.00,Wunderground v.1.15,2013-04-23 08:34:00,
2013-04-23 04:40:00,67.1,64.4,29.94,North,359,0.0,0.0,91,0.00,,,0.00,Wunderground v.1.15,2013-04-23 08:40:00,
2013-04-23 04:45:00,66.9,64.5,29.94,North,359,0.0,0.0,92,0.00,,,0.00,Wunderground v.1.15,2013-04-23 08:45:00,
2013-04-23 04:50:00,66.8,64.4,29.94,North,359,0.0,0.0,92,0.00,,,0.00,Wunderground v.1.15,2013-04-23 08:50:00,
2013-04-23 04:55:00,66.6,64.5,29.94,North,359,0.0,0.0,93,0.00,,,0.00,Wunderground v.1.15,2013-04-23 08:55:00,
2013-04-23 05:00:00,66.4,64.3,29.94,North,359,0.0,0.0,93,0.00,,,0.00,Wunderground v.1.15,2013-04-23 09:00:00,
2013-04-23 05:05:00,66.3,64.2,29.94,North,359,0.0,0.0,93,0.00,,,0.00,Wunderground v.1.15,2013-04-23 09:05:00,
2013-04-23 05:10:00,66.1,64.0,29.94,North,359,0.0,0.0,93,0.00,,,0.00,Wunderground v.1.15,2013-04-23 09:10:00,
2013-04-23 05:15:00,66.1,64.3,29.94,North,359,0.0,0.0,94,0.00,,,0.00,Wunderground v.1.15,2013-04-23 09:15:00,
2013-04-23 05:20:00,66.0,64.2,29.94,North,359,0.0,0.0,94,0.00,,,0.00,Wunderground v.1.15,2013-04-23 09:20:00,
2013-04-23 05:25:00,66.0,64.5,29.94,North,359,0.0,0.0,95,0.00,,,0.00,Wunderground v.1.15,2013-04-23 09:25:00,
2013-04-23 05:30:00,66.1,64.6,29.94,North,359,0.0,0.0,95,0.00,,,0.00,Wunderground v.1.15,2013-04-23 09:30:00,
2013-04-23 05:35:00,66.3,65.1,29.94,NW,311,0.0,0.0,96,0.00,,,0.00,Wunderground v.1.15,2013-04-23 09:35:00,
2013-04-23 05:41:00,66.4,65.2,29.94,NW,311,0.0,0.0,96,0.00,,,0.00,Wunderground v.1.15,2013-04-23 09:41:00,
2013-04-23 05:46:00,66.6,65.4,29.95,NW,311,0.0,0.0,96,0.00,,,0.00,Wunderground v.1.15,2013-04-23 09:46:00,
2013-04-23 05:51:00,66.8,65.6,29.95,NW,311,0.0,0.0,96,0.00,,,0.00,Wunderground v.1.15,2013-04-23 09:51:00,
2013-04-23 05:56:00,66.8,65.6,29.95,NW,311,0.0,0.0,96,0.00,,,0.00,Wunderground v.1.15,2013-04-23 09:56:00,
2013-04-23 06:01:00,66.8,65.6,29.95,NW,311,0.0,0.0,96,0.00,,,0.00,Wunderground v.1.15,2013-04-23 10:01:00,
2013-04-23 06:07:00,66.9,65.7,29.95,NW,311,0.0,0.0,96,0.00,,,0.00,Wunderground v.1.15,2013-04-23 10:07:00,
2013-04-23 06:12:00,66.9,66.0,29.95,NW,311,0.0,0.0,97,0.00,,,0.00,Wunderground v.1.15,2013-04-23 10:12:00,
2013-04-23 06:17:00,67.1,66.2,29.95,NNW,347,0.0,0.0,97,0.00,,,0.00,Wunderground v.1.15,2013-04-23 10:17:00,
2013-04-23 06:22:00,67.8,67.2,29.95,North,9,0.0,0.0,98,0.00,,,0.00,Wunderground v.1.15,2013-04-23 10:22:00,
2013-04-23 06:28:00,68.3,67.4,29.95,NE,53,0.0,0.0,97,0.00,,,0.00,Wunderground v.1.15,2013-04-23 10:28:00,
2013-04-23 06:33:00,68.6,67.7,29.95,NNE,29,0.0,1.0,97,0.00,,,0.00,Wunderground v.1.15,2013-04-23 10:33:00,
2013-04-23 06:38:00,68.9,68.0,29.95,NNW,342,3.0,3.0,97,0.00,,,0.00,Wunderground v.1.15,2013-04-23 10:38:00,
2013-04-23 06:43:00,69.3,68.1,29.95,NNE,28,0.0,1.0,96,0.00,,,0.00,Wunderground v.1.15,2013-04-23 10:43:00,
2013-04-23 06:48:00,69.6,67.8,29.95,NE,41,0.0,3.0,94,0.00,,,0.00,Wunderground v.1.15,2013-04-23 10:48:00,
2013-04-23 06:53:00,69.8,67.7,29.95,NE,43,0.0,4.0,93,0.00,,,0.00,Wunderground v.1.15,2013-04-23 10:53:00,
2013-04-23 06:58:00,70.1,67.7,29.95,NNE,31,0.0,4.0,92,0.00,,,0.00,Wunderground v.1.15,2013-04-23 10:58:00,
2013-04-23 07:03:00,70.3,67.5,29.96,NNE,30,0.0,1.0,91,0.00,,,0.00,Wunderground v.1.15,2013-04-23 11:03:00,
2013-04-23 07:08:00,70.4,67.3,29.96,North,8,0.0,2.0,90,0.00,,,0.00,Wunderground v.1.15,2013-04-23 11:08:00,
2013-04-23 07:13:00,70.8,67.7,29.96,NNE,27,0.0,0.0,90,0.00,,,0.00,Wunderground v.1.15,2013-04-23 11:13:00,
2013-04-23 07:18:00,70.9,67.2,29.96,NNE,18,0.0,3.0,88,0.00,,,0.00,Wunderground v.1.15,2013-04-23 11:18:00,
2013-04-23 07:23:00,71.1,67.0,29.96,North,1,0.0,2.0,87,0.00,,,0.00,Wunderground v.1.15,2013-04-23 11:23:00,
2013-04-23 07:29:00,71.3,66.6,29.97,NNE,32,0.0,3.0,85,0.00,,,0.00,Wunderground v.1.15,2013-04-23 11:29:00,
2013-04-23 07:34:00,71.6,66.8,29.97,North,8,0.0,3.0,85,0.00,,,0.00,Wunderground v.1.15,2013-04-23 11:34:00,
2013-04-23 07:39:00,71.8,66.7,29.97,NE,50,0.0,3.0,84,0.00,,,0.00,Wunderground v.1.15,2013-04-23 11:39:00,
2013-04-23 07:44:00,72.1,67.0,29.97,NNE,19,0.0,2.0,84,0.00,,,0.00,Wunderground v.1.15,2013-04-23 11:44:00,
2013-04-23 07:49:00,72.1,67.0,29.97,ENE,67,0.0,2.0,84,0.00,,,0.00,Wunderground v.1.15,2013-04-23 11:49:00,
2013-04-23 07:54:00,72.1,67.0,29.97,NE,37,0.0,1.0,84,0.00,,,0.00,Wunderground v.1.15,2013-04-23 11:54:00,
2013-04-23 07:59:00,72.3,67.2,29.98,NE,39,0.0,1.0,84,0.00,,,0.00,Wunderground v.1.15,2013-04-23 11:59:00,
2013-04-23 08:04:00,72.3,67.2,29.98,NNE,28,0.0,0.0,84,0.00,,,0.00,Wunderground v.1.15,2013-04-23 12:04:00,
2013-04-23 08:09:00,72.3,66.8,29.98,NNE,31,0.0,0.0,83,0.00,,,0.00,Wunderground v.1.15,2013-04-23 12:09:00,
2013-04-23 08:15:00,72.3,66.8,29.98,NNE,13,0.0,5.0,83,0.00,,,0.00,Wunderground v.1.15,2013-04-23 12:15:00,
2013-04-23 08:20:00,72.7,66.9,29.98,North,1,0.0,0.0,82,0.00,,,0.00,Wunderground v.1.15,2013-04-23 12:20:00,
2013-04-23 08:25:00,73.0,66.5,29.98,NNE,27,0.0,3.0,80,0.00,,,0.00,Wunderground v.1.15,2013-04-23 12:25:00,
2013-04-23 08:30:00,73.3,66.8,29.99,NE,55,0.0,1.0,80,0.00,,,0.00,Wunderground v.1.15,2013-04-23 12:30:00,
2013-04-23 08:36:00,73.5,66.6,29.99,NE,35,0.0,7.0,79,0.00,,,0.00,Wunderground v.1.15,2013-04-23 12:36:00,
2013-04-23 08:41:00,73.5,65.8,29.99,ENE,68,0.0,1.0,77,0.00,,,0.00,Wunderground v.1.15,2013-04-23 12:41:00,
2013-04-23 08:46:00,73.7,65.7,29.99,East,100,0.0,6.0,76,0.00,,,0.00,Wunderground v.1.15,2013-04-23 12:46:00,
2013-04-23 08:51:00,73.9,65.9,29.99,East,86,0.0,1.0,76,0.00,,,0.00,Wunderground v.1.15,2013-04-23 12:51:00,
2013-04-23 08:57:00,74.0,66.0,29.99,NNE,31,0.0,2.0,76,0.00,,,0.00,Wunderground v.1.15,2013-04-23 12:57:00,
2013-04-23 09:02:00,74.2,65.8,30.00,NNE,24,1.0,4.0,75,0.00,,,0.00,Wunderground v.1.15,2013-04-23 13:02:00,
2013-04-23 09:07:00,74.4,66.0,30.00,NE,42,1.0,13.0,75,0.00,,,0.00,Wunderground v.1.15,2013-04-23 13:07:00,
2013-04-23 09:13:00,74.6,65.4,30.00,ENE,58,0.0,6.0,73,0.00,,,0.00,Wunderground v.1.15,2013-04-23 13:13:00,
2013-04-23 09:18:00,74.6,65.0,30.01,NE,44,0.0,12.0,72,0.00,,,0.00,Wunderground v.1.15,2013-04-23 13:18:00,
2013-04-23 09:23:00,74.7,65.1,30.01,NNE,27,0.0,4.0,72,0.00,,,0.00,Wunderground v.1.15,2013-04-23 13:23:00,
2013-04-23 09:28:00,74.9,64.9,30.01,NE,51,1.0,7.0,71,0.00,,,0.00,Wunderground v.1.15,2013-04-23 13:28:00,
2013-04-23 09:33:00,75.1,65.1,30.01,NE,50,1.0,2.0,71,0.00,,,0.00,Wunderground v.1.15,2013-04-23 13:33:00,
2013-04-23 09:38:00,75.1,64.6,30.01,NE,53,0.0,9.0,70,0.00,,,0.00,Wunderground v.1.15,2013-04-23 13:38:00,
2013-04-23 09:43:00,75.1,64.6,30.01,NE,48,2.0,11.0,70,0.00,,,0.00,Wunderground v.1.15,2013-04-23 13:43:00,
2013-04-23 09:48:00,75.3,65.2,30.02,NNE,20,1.0,12.0,71,0.00,,,0.00,Wunderground v.1.15,2013-04-23 13:48:00,
2013-04-23 09:53:00,75.4,64.5,30.02,NE,52,3.0,14.0,69,0.00,,,0.00,Wunderground v.1.15,2013-04-23 13:53:00,
2013-04-23 09:58:00,75.6,65.5,30.02,North,358,1.0,14.0,71,0.00,,,0.00,Wunderground v.1.15,2013-04-23 13:58:00,
2013-04-23 10:03:00,75.8,64.9,30.03,NE,39,1.0,9.0,69,0.00,,,0.00,Wunderground v.1.15,2013-04-23 14:03:00,
2013-04-23 10:08:00,75.8,64.1,30.03,NNE,20,0.0,9.0,67,0.00,,,0.00,Wunderground v.1.15,2013-04-23 14:08:00,
2013-04-23 10:13:00,76.0,64.7,30.03,NE,43,7.0,10.0,68,0.00,,,0.00,Wunderground v.1.15,2013-04-23 14:13:00,
2013-04-23 10:18:00,76.0,65.1,30.03,North,1,2.0,10.0,69,0.00,,,0.00,Wunderground v.1.15,2013-04-23 14:18:00,
2013-04-23 10:24:00,76.3,65.4,30.03,ENE,60,0.0,4.0,69,0.00,,,0.00,Wunderground v.1.15,2013-04-23 14:24:00,
2013-04-23 10:29:00,76.3,64.5,30.04,East,100,0.0,4.0,67,0.00,,,0.00,Wunderground v.1.15,2013-04-23 14:29:00,
2013-04-23 10:34:00,76.5,64.3,30.04,ENE,72,0.0,11.0,66,0.00,,,0.00,Wunderground v.1.15,2013-04-23 14:34:00,
2013-04-23 10:39:00,76.7,64.9,30.04,North,359,3.0,11.0,67,0.00,,,0.00,Wunderground v.1.15,2013-04-23 14:39:00,
2013-04-23 10:44:00,77.0,64.8,30.04,North,5,2.0,11.0,66,0.00,,,0.00,Wunderground v.1.15,2013-04-23 14:44:00,
2013-04-23 10:50:00,77.2,64.5,30.04,ENE,61,0.0,2.0,65,0.00,,,0.00,Wunderground v.1.15,2013-04-23 14:50:00,
2013-04-23 10:55:00,77.0,64.8,30.04,NE,40,0.0,10.0,66,0.00,,,0.00,Wunderground v.1.15,2013-04-23 14:55:00,
2013-04-23 11:00:00,77.2,65.0,30.04,NNE,22,1.0,5.0,66,0.00,,,0.00,Wunderground v.1.15,2013-04-23 15:00:00,
2013-04-23 11:05:00,77.4,64.7,30.04,NE,35,1.0,14.0,65,0.00,,,0.00,Wunderground v.1.15,2013-04-23 15:05:00,
2013-04-23 11:10:00,77.4,64.7,30.04,NE,36,1.0,2.0,65,0.00,,,0.00,Wunderground v.1.15,2013-04-23 15:10:00,
2013-04-23 11:15:00,77.7,65.4,30.05,ENE,67,0.0,11.0,66,0.00,,,0.00,Wunderground v.1.15,2013-04-23 15:15:00,
2013-04-23 11:20:00,77.7,65.4,30.05,NNE,26,1.0,1.0,66,0.00,,,0.00,Wunderground v.1.15,2013-04-23 15:20:00,
2013-04-23 11:25:00,78.1,64.9,30.05,NNE,23,1.0,3.0,64,0.00,,,0.00,Wunderground v.1.15,2013-04-23 15:25:00,
2013-04-23 11:31:00,78.1,64.5,30.05,NE,45,1.0,2.0,63,0.00,,,0.00,Wunderground v.1.15,2013-04-23 15:31:00,
2013-04-23 11:36:00,78.5,65.3,30.05,NNE,28,0.0,6.0,64,0.00,,,0.00,Wunderground v.1.15,2013-04-23 15:36:00,
2013-04-23 11:41:00,78.3,64.2,30.05,North,10,2.0,4.0,62,0.00,,,0.00,Wunderground v.1.15,2013-04-23 15:41:00,
2013-04-23 11:46:00,78.5,65.3,30.05,NE,35,3.0,14.0,64,0.00,,,0.00,Wunderground v.1.15,2013-04-23 15:46:00,
2013-04-23 11:51:00,78.5,65.3,30.05,NE,41,1.0,2.0,64,0.00,,,0.00,Wunderground v.1.15,2013-04-23 15:51:00,
2013-04-23 11:56:00,78.5,63.5,30.05,ENE,61,1.0,7.0,60,0.00,,,0.00,Wunderground v.1.15,2013-04-23 15:56:00,
2013-04-23 12:01:00,78.3,63.3,30.05,NE,55,0.0,10.0,60,0.00,,,0.00,Wunderground v.1.15,2013-04-23 16:01:00,
2013-04-23 12:06:00,78.3,63.7,30.05,NE,44,0.0,11.0,61,0.00,,,0.00,Wunderground v.1.15,2013-04-23 16:06:00,
2013-04-23 12:11:00,78.8,63.7,30.05,NNE,28,0.0,5.0,60,0.00,,,0.00,Wunderground v.1.15,2013-04-23 16:11:00,
2013-04-23 12:17:00,79.4,64.8,30.04,NNE,15,0.0,5.0,61,0.00,,,0.00,Wunderground v.1.15,2013-04-23 16:17:00,
2013-04-23 12:22:00,79.6,63.5,30.04,NNE,28,0.0,4.0,58,0.00,,,0.00,Wunderground v.1.15,2013-04-23 16:22:00,
2013-04-23 12:27:00,79.8,64.2,30.04,ENE,66,2.0,4.0,59,0.00,,,0.00,Wunderground v.1.15,2013-04-23 16:27:00,
2013-04-23 12:32:00,79.6,65.0,30.04,NNE,20,0.0,4.0,61,0.00,,,0.00,Wunderground v.1.15,2013-04-23 16:32:00,
2013-04-23 12:38:00,79.4,64.8,30.04,North,0,1.0,14.0,61,0.00,,,0.00,Wunderground v.1.15,2013-04-23 16:38:00,
2013-04-23 12:43:00,79.6,65.9,30.04,North,1,15.0,15.0,63,0.00,,,0.00,Wunderground v.1.15,2013-04-23 16:43:00,
2013-04-23 12:48:00,79.8,65.6,30.04,ENE,64,0.0,15.0,62,0.00,,,0.00,Wunderground v.1.15,2013-04-23 16:48:00,
2013-04-23 12:53:00,79.4,65.7,30.04,NNE,16,0.0,14.0,63,0.00,,,0.00,Wunderground v.1.15,2013-04-23 16:53:00,
2013-04-23 12:58:00,79.6,65.0,30.04,ESE,104,1.0,14.0,61,0.00,,,0.00,Wunderground v.1.15,2013-04-23 16:58:00,
2013-04-23 13:04:00,79.9,65.2,30.04,NE,48,5.0,6.0,61,0.00,,,0.00,Wunderground v.1.15,2013-04-23 17:04:00,
2013-04-23 13:09:00,80.1,65.4,30.04,East,83,1.0,7.0,61,0.00,,,0.00,Wunderground v.1.15,2013-04-23 17:09:00,
2013-04-23 13:14:00,79.9,64.3,30.03,NE,34,6.0,14.0,59,0.00,,,0.00,Wunderground v.1.15,2013-04-23 17:14:00,
2013-04-23 13:19:00,79.6,64.0,30.03,North,1,1.0,2.0,59,0.00,,,0.00,Wunderground v.1.15,2013-04-23 17:19:00,
2013-04-23 13:25:00,79.6,65.0,30.03,ENE,57,2.0,7.0,61,0.00,,,0.00,Wunderground v.1.15,2013-04-23 17:25:00,
2013-04-23 13:30:00,79.9,64.8,30.03,ENE,75,12.0,12.0,60,0.00,,,0.00,Wunderground v.1.15,2013-04-23 17:30:00,
2013-04-23 13:35:00,79.9,63.8,30.03,NNE,32,6.0,12.0,58,0.00,,,0.00,Wunderground v.1.15,2013-04-23 17:35:00,
2013-04-23 13:41:00,80.3,63.7,30.03,North,8,2.0,5.0,57,0.00,,,0.00,Wunderground v.1.15,2013-04-23 17:41:00,
2013-04-23 13:46:00,80.1,64.5,30.03,NNE,27,2.0,7.0,59,0.00,,,0.00,Wunderground v.1.15,2013-04-23 17:46:00,
2013-04-23 13:51:00,80.1,63.0,30.03,ESE,109,1.0,2.0,56,0.00,,,0.00,Wunderground v.1.15,2013-04-23 17:51:00,
2013-04-23 13:56:00,80.3,63.7,30.03,North,0,1.0,6.0,57,0.00,,,0.00,Wunderground v.1.15,2013-04-23 17:56:00,
2013-04-23 14:02:00,80.3,62.7,30.03,NNE,28,1.0,11.0,55,0.00,,,0.00,Wunderground v.1.15,2013-04-23 18:02:00,
2013-04-23 14:07:00,80.5,63.4,30.03,NNE,13,6.0,11.0,56,0.00,,,0.00,Wunderground v.1.15,2013-04-23 18:07:00,
2013-04-23 14:12:00,80.7,65.5,30.03,NW,324,2.0,11.0,60,0.00,,,0.00,Wunderground v.1.15,2013-04-23 18:12:00,
2013-04-23 14:17:00,80.7,63.5,30.03,ENE,63,1.0,12.0,56,0.00,,,0.00,Wunderground v.1.15,2013-04-23 18:17:00,
2013-04-23 14:23:00,80.5,63.9,30.03,NNE,20,1.0,9.0,57,0.00,,,0.00,Wunderground v.1.15,2013-04-23 18:23:00,
2013-04-23 14:28:00,80.9,64.7,30.03,ENE,71,2.0,10.0,58,0.00,,,0.00,Wunderground v.1.15,2013-04-23 18:28:00,
2013-04-23 14:33:00,80.9,64.2,30.03,North,1,1.0,9.0,57,0.00,,,0.00,Wunderground v.1.15,2013-04-23 18:33:00,
2013-04-23 14:38:00,80.7,63.0,30.03,North,3,2.0,9.0,55,0.00,,,0.00,Wunderground v.1.15,2013-04-23 18:38:00,
2013-04-23 14:43:00,80.3,63.7,30.03,NNE,31,1.0,3.0,57,0.00,,,0.00,Wunderground v.1.15,2013-04-23 18:43:00,
2013-04-23 14:49:00,80.7,63.5,30.03,NE,51,3.0,12.0,56,0.00,,,0.00,Wunderground v.1.15,2013-04-23 18:49:00,
2013-04-23 14:54:00,80.3,64.7,30.03,North,8,1.0,7.0,59,0.00,,,0.00,Wunderground v.1.15,2013-04-23 18:54:00,
2013-04-23 14:59:00,80.7,63.5,30.03,NE,34,1.0,13.0,56,0.00,,,0.00,Wunderground v.1.15,2013-04-23 18:59:00,
2013-04-23 15:04:00,80.7,64.1,30.03,NE,49,0.0,5.0,57,0.00,,,0.00,Wunderground v.1.15,2013-04-23 19:04:00,
2013-04-23 15:09:00,80.5,63.9,30.03,East,80,1.0,13.0,57,0.00,,,0.00,Wunderground v.1.15,2013-04-23 19:09:00,
2013-04-23 15:14:00,80.3,63.2,30.03,NNE,17,2.0,9.0,56,0.00,,,0.00,Wunderground v.1.15,2013-04-23 19:14:00,
2013-04-23 15:19:00,79.9,62.3,30.03,North,1,2.0,9.0,55,0.00,,,0.00,Wunderground v.1.15,2013-04-23 19:19:00,
2013-04-23 15:24:00,79.8,62.7,30.03,North,1,2.0,4.0,56,0.00,,,0.00,Wunderground v.1.15,2013-04-23 19:24:00,
2013-04-23 15:29:00,79.8,62.7,30.03,NE,50,1.0,1.0,56,0.00,,,0.00,Wunderground v.1.15,2013-04-23 19:29:00,
2013-04-23 15:35:00,79.4,62.3,30.03,NNW,340,4.0,9.0,56,0.00,,,0.00,Wunderground v.1.15,2013-04-23 19:35:00,
2013-04-23 15:40:00,79.9,63.3,30.03,North,2,1.0,1.0,57,0.00,,,0.00,Wunderground v.1.15,2013-04-23 19:40:00,
2013-04-23 15:45:00,79.9,63.3,30.02,NE,52,0.0,3.0,57,0.00,,,0.00,Wunderground v.1.15,2013-04-23 19:45:00,
2013-04-23 15:51:00,79.8,63.7,30.02,NNE,13,1.0,4.0,58,0.00,,,0.00,Wunderground v.1.15,2013-04-23 19:51:00,
2013-04-23 15:56:00,79.9,63.8,30.02,NNE,27,3.0,5.0,58,0.00,,,0.00,Wunderground v.1.15,2013-04-23 19:56:00,
2013-04-23 16:01:00,79.8,63.7,30.02,North,1,0.0,3.0,58,0.00,,,0.00,Wunderground v.1.15,2013-04-23 20:01:00,
2013-04-23 16:06:00,79.9,62.8,30.02,NE,56,1.0,9.0,56,0.00,,,0.00,Wunderground v.1.15,2013-04-23 20:06:00,
2013-04-23 16:11:00,79.9,62.3,30.02,NE,36,5.0,6.0,55,0.00,,,0.00,Wunderground v.1.15,2013-04-23 20:11:00,
2013-04-23 16:16:00,79.8,62.7,30.01,NE,42,0.0,6.0,56,0.00,,,0.00,Wunderground v.1.15,2013-04-23 20:16:00,
2013-04-23 16:21:00,80.1,63.0,30.01,North,1,0.0,2.0,56,0.00,,,0.00,Wunderground v.1.15,2013-04-23 20:21:00,
2013-04-23 16:26:00,80.3,61.6,30.01,NE,52,3.0,5.0,53,0.00,,,0.00,Wunderground v.1.15,2013-04-23 20:26:00,
2013-04-23 16:31:00,80.1,61.4,30.01,NNE,20,0.0,11.0,53,0.00,,,0.00,Wunderground v.1.15,2013-04-23 20:31:00,
2013-04-23 16:36:00,79.9,62.3,30.01,North,4,4.0,11.0,55,0.00,,,0.00,Wunderground v.1.15,2013-04-23 20:36:00,
2013-04-23 16:41:00,79.9,62.8,30.01,NE,53,5.0,6.0,56,0.00,,,0.00,Wunderground v.1.15,2013-04-23 20:41:00,
2013-04-23 16:46:00,80.3,63.7,30.01,NNE,15,0.0,6.0,57,0.00,,,0.00,Wunderground v.1.15,2013-04-23 20:46:00,
2013-04-23 16:51:00,79.9,61.2,30.01,ENE,58,0.0,6.0,53,0.00,,,0.00,Wunderground v.1.15,2013-04-23 20:51:00,
2013-04-23 16:56:00,79.9,62.3,30.01,North,8,0.0,7.0,55,0.00,,,0.00,Wunderground v.1.15,2013-04-23 20:56:00,
2013-04-23 17:01:00,79.2,61.6,30.01,ENE,65,1.0,2.0,55,0.00,,,0.00,Wunderground v.1.15,2013-04-23 21:01:00,
2013-04-23 17:06:00,78.5,61.5,30.01,East,96,1.0,12.0,56,0.00,,,0.00,Wunderground v.1.15,2013-04-23 21:06:00,
2013-04-23 17:12:00,78.5,61.5,30.01,NNE,17,1.0,2.0,56,0.00,,,0.00,Wunderground v.1.15,2013-04-23 21:12:00,
2013-04-23 17:17:00,78.5,62.5,30.01,ENE,59,1.0,10.0,58,0.00,,,0.00,Wunderground v.1.15,2013-04-23 21:17:00,
2013-04-23 17:22:00,78.6,62.6,30.01,North,11,2.0,4.0,58,0.00,,,0.00,Wunderground v.1.15,2013-04-23 21:22:00,
2013-04-23 17:28:00,78.5,62.0,30.01,NNE,24,3.0,7.0,57,0.00,,,0.00,Wunderground v.1.15,2013-04-23 21:28:00,
2013-04-23 17:33:00,78.3,61.3,30.01,NNE,27,3.0,9.0,56,0.00,,,0.00,Wunderground v.1.15,2013-04-23 21:33:00,
2013-04-23 17:38:00,77.9,61.9,30.01,North,10,1.0,10.0,58,0.00,,,0.00,Wunderground v.1.15,2013-04-23 21:38:00,
2013-04-23 17:43:00,77.6,62.6,30.01,North,1,1.0,3.0,60,0.00,,,0.00,Wunderground v.1.15,2013-04-23 21:43:00,
2013-04-23 17:48:00,77.2,62.7,30.02,North,1,3.0,10.0,61,0.00,,,0.00,Wunderground v.1.15,2013-04-23 21:48:00,
2013-04-23 17:53:00,76.8,62.8,30.02,NE,46,0.0,4.0,62,0.00,,,0.00,Wunderground v.1.15,2013-04-23 21:53:00,
2013-04-23 17:59:00,76.5,62.0,30.02,NE,41,3.0,5.0,61,0.00,,,0.00,Wunderground v.1.15,2013-04-23 21:59:00,
2013-04-23 18:04:00,76.5,62.0,30.02,NE,47,1.0,3.0,61,0.00,,,0.00,Wunderground v.1.15,2013-04-23 22:04:00,
2013-04-23 18:09:00,76.5,61.6,30.02,NNE,15,0.0,6.0,60,0.00,,,0.00,Wunderground v.1.15,2013-04-23 22:09:00,
2013-04-23 18:14:00,76.5,61.6,30.02,North,11,1.0,3.0,60,0.00,,,0.00,Wunderground v.1.15,2013-04-23 22:14:00,
2013-04-23 18:19:00,76.0,61.6,30.02,NNW,339,0.0,5.0,61,0.00,,,0.00,Wunderground v.1.15,2013-04-23 22:19:00,
2013-04-23 18:24:00,75.4,62.4,30.02,NE,34,0.0,5.0,64,0.00,,,0.00,Wunderground v.1.15,2013-04-23 22:24:00,
2013-04-23 18:30:00,75.1,62.1,30.03,North,351,0.0,1.0,64,0.00,,,0.00,Wunderground v.1.15,2013-04-23 22:30:00,
2013-04-23 18:35:00,74.7,62.6,30.03,NNE,19,0.0,4.0,66,0.00,,,0.00,Wunderground v.1.15,2013-04-23 22:35:00,
2013-04-23 18:40:00,74.6,63.8,30.03,NNE,16,1.0,7.0,69,0.00,,,0.00,Wunderground v.1.15,2013-04-23 22:40:00,
2013-04-23 18:45:00,74.4,64.0,30.03,North,1,2.0,7.0,70,0.00,,,0.00,Wunderground v.1.15,2013-04-23 22:45:00,
2013-04-23 18:51:00,74.4,64.4,30.03,North,356,1.0,7.0,71,0.00,,,0.00,Wunderground v.1.15,2013-04-23 22:51:00,
2013-04-23 18:56:00,74.2,65.0,30.03,NNW,341,2.0,7.0,73,0.00,,,0.00,Wunderground v.1.15,2013-04-23 22:56:00,
2013-04-23 19:01:00,73.9,65.1,30.03,NNW,342,1.0,1.0,74,0.00,,,0.00,Wunderground v.1.15,2013-04-23 23:01:00,
2013-04-23 19:06:00,73.5,64.7,30.03,NE,41,3.0,7.0,74,0.00,,,0.00,Wunderground v.1.15,2013-04-23 23:06:00,
2013-04-23 19:11:00,73.3,64.5,30.03,NNE,15,1.0,3.0,74,0.00,,,0.00,Wunderground v.1.15,2013-04-23 23:11:00,
2013-04-23 19:16:00,73.0,64.6,30.03,North,349,3.0,9.0,75,0.00,,,0.00,Wunderground v.1.15,2013-04-23 23:16:00,
2013-04-23 19:21:00,72.7,64.7,30.03,North,357,0.0,3.0,76,0.00,,,0.00,Wunderground v.1.15,2013-04-23 23:21:00,
2013-04-23 19:26:00,72.3,64.7,30.03,NNE,23,1.0,3.0,77,0.00,,,0.00,Wunderground v.1.15,2013-04-23 23:26:00,
2013-04-23 19:31:00,72.1,64.5,30.03,North,358,4.0,9.0,77,0.00,,,0.00,Wunderground v.1.15,2013-04-23 23:31:00,
2013-04-23 19:36:00,72.0,64.8,30.03,NE,46,3.0,9.0,78,0.00,,,0.00,Wunderground v.1.15,2013-04-23 23:36:00,
2013-04-23 19:41:00,71.8,64.6,30.03,NNE,23,0.0,6.0,78,0.00,,,0.00,Wunderground v.1.15,2013-04-23 23:41:00,
2013-04-23 19:46:00,71.6,64.7,30.03,NNE,15,0.0,6.0,79,0.00,,,0.00,Wunderground v.1.15,2013-04-23 23:46:00,
2013-04-23 19:51:00,71.5,64.6,30.03,NNE,18,2.0,4.0,79,0.00,,,0.00,Wunderground v.1.15,2013-04-23 23:51:00,
2013-04-23 19:56:00,71.5,64.6,30.03,NNW,343,3.0,6.0,79,0.00,,,0.00,Wunderground v.1.15,2013-04-23 23:56:00,
2013-04-23 20:01:00,71.3,64.4,30.03,North,4,4.0,4.0,79,0.00,,,0.00,Wunderground v.1.15,2013-04-24 00:01:00,
2013-04-23 20:06:00,71.1,64.3,30.03,North,359,0.0,4.0,79,0.00,,,0.00,Wunderground v.1.15,2013-04-24 00:06:00,
2013-04-23 20:12:00,70.9,64.4,30.03,NNE,30,0.0,6.0,80,0.00,,,0.00,Wunderground v.1.15,2013-04-24 00:12:00,
2013-04-23 20:17:00,70.9,64.4,30.03,North,1,1.0,6.0,80,0.00,,,0.00,Wunderground v.1.15,2013-04-24 00:17:00,
2013-04-23 20:22:00,70.8,64.3,30.03,North,359,0.0,7.0,80,0.00,,,0.00,Wunderground v.1.15,2013-04-24 00:22:00,
2013-04-23 20:27:00,70.8,64.3,30.03,NNE,31,1.0,7.0,80,0.00,,,0.00,Wunderground v.1.15,2013-04-24 00:27:00,
2013-04-23 20:33:00,70.6,64.5,30.04,NNE,32,0.0,6.0,81,0.00,,,0.00,Wunderground v.1.15,2013-04-24 00:33:00,
2013-04-23 20:38:00,70.6,64.5,30.04,North,359,0.0,6.0,81,0.00,,,0.00,Wunderground v.1.15,2013-04-24 00:38:00,
2013-04-23 20:43:00,70.6,64.5,30.04,North,359,0.0,3.0,81,0.00,,,0.00,Wunderground v.1.15,2013-04-24 00:43:00,
2013-04-23 20:48:00,70.4,64.3,30.04,North,356,0.0,4.0,81,0.00,,,0.00,Wunderground v.1.15,2013-04-24 00:48:00,
2013-04-23 20:53:00,70.4,64.3,30.04,NNW,340,0.0,5.0,81,0.00,,,0.00,Wunderground v.1.15,2013-04-24 00:53:00,
2013-04-23 20:58:00,70.4,64.6,30.04,North,9,0.0,5.0,82,0.00,,,0.00,Wunderground v.1.15,2013-04-24 00:58:00,
2013-04-23 21:03:00,70.4,64.6,30.05,North,9,0.0,2.0,82,0.00,,,0.00,Wunderground v.1.15,2013-04-24 01:03:00,
2013-04-23 21:08:00,70.3,64.5,30.05,North,357,0.0,3.0,82,0.00,,,0.00,Wunderground v.1.15,2013-04-24 01:08:00,
2013-04-23 21:14:00,70.3,64.5,30.05,North,8,0.0,3.0,82,0.00,,,0.00,Wunderground v.1.15,2013-04-24 01:14:00,
2013-04-23 21:19:00,70.3,64.5,30.05,North,2,0.0,7.0,82,0.00,,,0.00,Wunderground v.1.15,2013-04-24 01:19:00,
2013-04-23 21:24:00,70.3,64.5,30.05,North,11,1.0,2.0,82,0.00,,,0.00,Wunderground v.1.15,2013-04-24 01:24:00,
2013-04-23 21:29:00,70.3,64.9,30.06,North,351,0.0,5.0,83,0.00,,,0.00,Wunderground v.1.15,2013-04-24 01:29:00,
2013-04-23 21:34:00,70.1,64.7,30.06,North,359,0.0,3.0,83,0.00,,,0.00,Wunderground v.1.15,2013-04-24 01:34:00,
2013-04-23 21:39:00,70.1,64.7,30.06,North,1,2.0,4.0,83,0.00,,,0.00,Wunderground v.1.15,2013-04-24 01:39:00,
2013-04-23 21:44:00,70.1,64.7,30.06,North,359,0.0,11.0,83,0.00,,,0.00,Wunderground v.1.15,2013-04-24 01:44:00,
2013-04-23 21:49:00,70.1,64.7,30.06,North,359,0.0,11.0,83,0.00,,,0.00,Wunderground v.1.15,2013-04-24 01:49:00,
2013-04-23 21:54:00,69.9,64.5,30.06,NNW,338,0.0,5.0,83,0.00,,,0.00,Wunderground v.1.15,2013-04-24 01:54:00,
2013-04-23 21:59:00,70.1,64.7,30.06,NNE,18,0.0,5.0,83,0.00,,,0.00,Wunderground v.1.15,2013-04-24 01:59:00,
2013-04-23 22:04:00,69.9,64.5,30.06,North,359,0.0,2.0,83,0.00,,,0.00,Wunderground v.1.15,2013-04-24 02:04:00,
2013-04-23 22:09:00,69.9,64.5,30.06,NNE,28,1.0,7.0,83,0.00,,,0.00,Wunderground v.1.15,2013-04-24 02:09:00,
2013-04-23 22:14:00,70.1,64.7,30.07,North,4,0.0,2.0,83,0.00,,,0.00,Wunderground v.1.15,2013-04-24 02:14:00,
2013-04-23 22:20:00,70.1,64.7,30.07,NNE,16,0.0,0.0,83,0.00,,,0.00,Wunderground v.1.15,2013-04-24 02:20:00,
2013-04-23 22:25:00,69.9,64.5,30.07,NE,34,0.0,0.0,83,0.00,,,0.00,Wunderground v.1.15,2013-04-24 02:25:00,
2013-04-23 22:30:00,69.9,64.5,30.07,NNE,31,0.0,0.0,83,0.00,,,0.00,Wunderground v.1.15,2013-04-24 02:30:00,
2013-04-23 22:35:00,69.9,64.5,30.07,NNW,342,0.0,3.0,83,0.00,,,0.00,Wunderground v.1.15,2013-04-24 02:35:00,
2013-04-23 22:40:00,69.9,64.5,30.07,NNE,24,0.0,1.0,83,0.00,,,0.00,Wunderground v.1.15,2013-04-24 02:40:00,
2013-04-23 22:45:00,69.9,64.5,30.07,North,0,0.0,6.0,83,0.00,,,0.00,Wunderground v.1.15,2013-04-24 02:45:00,
2013-04-23 22:50:00,69.9,64.5,30.07,North,1,0.0,0.0,83,0.00,,,0.00,Wunderground v.1.15,2013-04-24 02:50:00,
2013-04-23 22:55:00,69.8,64.4,30.07,North,1,0.0,0.0,83,0.00,,,0.00,Wunderground v.1.15,2013-04-24 02:55:00,
2013-04-23 23:00:00,69.6,62.8,30.07,NNE,32,0.0,0.0,79,0.00,,,0.00,Wunderground v.1.15,2013-04-24 03:00:00,
2013-04-23 23:05:00,69.8,62.3,30.07,NNE,25,0.0,7.0,77,0.00,,,0.00,Wunderground v.1.15,2013-04-24 03:05:00,
2013-04-23 23:10:00,69.9,61.6,30.07,NNE,22,0.0,2.0,75,0.00,,,0.00,Wunderground v.1.15,2013-04-24 03:10:00,
2013-04-23 23:15:00,70.1,61.8,30.06,East,93,0.0,6.0,75,0.00,,,0.00,Wunderground v.1.15,2013-04-24 03:15:00,
2013-04-23 23:20:00,70.3,61.6,30.06,NNE,20,0.0,4.0,74,0.00,,,0.00,Wunderground v.1.15,2013-04-24 03:20:00,
2013-04-23 23:25:00,70.3,60.8,30.06,NE,39,3.0,6.0,72,0.00,,,0.00,Wunderground v.1.15,2013-04-24 03:25:00,
2013-04-23 23:30:00,70.4,60.1,30.06,ENE,75,0.0,1.0,70,0.00,,,0.00,Wunderground v.1.15,2013-04-24 03:30:00,
2013-04-23 23:36:00,70.6,60.3,30.06,NNE,16,0.0,3.0,70,0.00,,,0.00,Wunderground v.1.15,2013-04-24 03:36:00,
2013-04-23 23:41:00,70.8,60.5,30.06,ENE,65,0.0,4.0,70,0.00,,,0.00,Wunderground v.1.15,2013-04-24 03:41:00,
2013-04-23 23:46:00,70.8,60.9,30.06,NE,37,2.0,4.0,71,0.00,,,0.00,Wunderground v.1.15,2013-04-24 03:46:00,
2013-04-23 23:51:00,70.8,60.5,30.06,East,83,0.0,0.0,70,0.00,,,0.00,Wunderground v.1.15,2013-04-24 03:51:00,
2013-04-23 23:56:00,70.6,59.9,30.06,NE,55,1.0,3.0,69,0.00,,,0.00,Wunderground v.1.15,2013-04-24 03:56:00,